Location: ??????
(56.0120°N, 39.1740°E)
Time: 06:41:25
(UTC+00:00)

NOSS 3-1 (C) - Pass Details

Date: 14 April 2026
Orbit: 618 x 1583 km, 63.4° (Epoch: 10 January)

Event Time Altitude Azimuth Distance (km) Brightness Sun altitude
Rises 20:01:27 0° 309° (NW) 3,619 7.5 -22.2°
Reaches altitude 10° 20:03:48 10° 306° (NW) 2,796 6.7 -22.3°
Maximum altitude 20:10:23 60° 228° (SW) 1,348 4.0 -22.6°
Enters shadow 20:13:20 39° 168° (SSE) 1,820 4.4 -22.7°
